KUIPER-00266

Last updated on Sun Mar 15 2026 00:02:06 GMT+0000 (Coordinated Universal Time)

1 67789U 26030AB 26073.59298627 .00034939 00000+0 11588-2 0 9996 2 67789 51.8822 196.4088 0023061 87.6685 272.6939 15.30679755 5835
UTC large
Height (km)
Speed (km/s)
/
Latitude / Longitude
Inclination (degrees)
Orbital Period (minutes)
Azimuth
Elevation
Range (km)
Doppler Factor

Next 0 passes for location: London (51.5072 / 0.1276)

Sorry there are no passes over London.